Snowfall_Accumulation
0.1 0.2 0.1 0.1 0.1 0.1 0.1 0.3 0.9 0.8 0.1 0.0 0.0 0.0 0.0 0.0 0.0 0.0 0.0 0.0 0.0 0.0 0.0 0.0 0.0 0.0 0.0 0.0 0.0 0.0 0.0 0.0 0.0 0.0 0.0 0.0 0.0 0.0
0.2 0.2 0.1 0.1 0.1 0.1 0.1 0.2 0.6 0.9 0.7 0.1 0.0 0.0 0.0 0.0 0.0 0.0 0.0 0.0 0.0 0.0 0.0 0.0 0.1 0.1 0.1 0.1 0.1 0.1 0.0 0.0 0.0 0.0 0.0 0.0 0.0 0.0
0.3 0.2 0.2 0.1 0.1 0.1 0.1 0.3 0.4 0.7 1.0 0.5 0.2 0.1 0.0 0.1 0.0 0.0 0.0 0.0 0.0 0.1 0.1 0.1 0.1 0.1 0.2 0.2 0.1 0.1 0.1 0.1 0.0 0.0 0.0 0.0 0.0 0.0
0.3 0.3 0.3 0.3 0.4 0.3 0.3 0.3 0.4 0.5 1.0 0.9 0.5 0.4 0.4 0.2 0.2 0.1 0.0 0.0 0.1 0.0 0.1 0.1 0.2 0.3 0.3 0.3 0.3 0.3 0.2 0.2 0.2 0.1 0.0 0.0 0.0 0.0
0.4 0.5 0.5 0.5 0.6 0.7 0.4 0.4 0.4 0.4 0.8 1.1 0.9 0.7 0.7 0.5 0.4 0.3 0.2 0.1 0.0 0.0 0.0 0.0 0.1 0.3 0.5 0.5 0.4 0.4 0.4 0.4 0.2 0.2 0.2 0.1 0.1 0.1
0.4 0.5 0.6 0.9 1.0 0.9 1.0 0.9 0.8 1.2 1.4 1.4 1.6 1.6 1.5 0.9 0.8 0.8 0.8 0.6 0.2 0.1 0.1 0.1 0.3 0.3 0.2 0.2 0.2 0.3 0.3 0.5 0.5 0.4 0.5 0.4 0.3 0.2
0.6 0.7 0.9 1.1 1.0 1.1 1.3 1.8 1.9 2.3 2.5 3.2 3.3 2.5 1.5 1.2 1.0 0.9 1.4 1.3 1.0 0.5 0.6 0.4 0.4 0.4 0.5 0.0 0.0 0.2 0.4 0.7 0.6 0.6 0.8 0.7 0.6 0.4
1.3 1.3 1.2 1.3 1.2 1.2 1.0 1.3 2.3 3.8 4.9 5.0 3.8 2.4 1.4 0.8 0.9 1.3 2.0 2.6 2.1 0.7 1.2 0.6 0.4 0.6 0.7 0.2 0.2 0.3 0.6 0.7 0.8 0.8 0.9 0.8 0.7 0.6
1.8 2.0 2.0 1.6 1.4 1.3 1.2 1.4 1.7 2.3 3.1 3.4 3.3 1.9 1.3 1.3 2.0 2.8 2.8 3.3 2.8 1.4 1.5 1.5 1.0 0.9 0.8 0.7 0.3 0.2 0.3 0.4 0.6 0.9 0.9 0.9 0.8 0.8
2.1 1.8 1.6 1.3 1.2 1.6 1.9 2.6 2.0 1.4 1.0 1.2 1.4 1.4 1.4 1.1 1.9 3.3 3.4 3.0 1.9 1.0 1.1 2.4 1.4 1.3 1.4 0.9 0.7 0.3 0.4 0.7 1.1 1.4 1.2 1.1 1.1 1.1
1.5 1.1 1.1 1.1 1.1 2.2 3.3 3.9 2.0 1.0 0.7 0.9 1.3 1.4 1.4 1.4 1.6 3.5 4.7 5.2 4.8 2.1 1.2 2.4 2.0 2.0 1.6 1.7 0.9 0.8 0.5 0.7 0.7 0.8 0.9 1.0 1.0 1.1
1.1 0.6 0.6 1.0 1.6 2.7 3.5 3.7 3.1 1.6 1.6 1.1 0.8 0.8 1.0 0.8 0.7 2.1 4.6 8.0 7.5 5.0 1.7 2.7 3.1 3.8 5.3 2.5 1.4 1.1 1.0 0.6 0.8 0.9 0.7 0.9 1.2 1.5
1.7 1.1 0.6 1.3 2.3 2.9 2.8 2.7 2.9 2.9 2.6 2.3 1.8 1.7 1.7 1.6 1.1 1.1 2.5 6.4 9.7 7.3 2.6 5.5 7.6 6.0 8.2 5.3 2.5 1.7 1.5 1.3 0.8 1.0 1.4 1.5 1.9 2.9
2.7 1.9 1.7 2.3 2.5 2.1 1.9 1.7 2.4 2.8 3.0 3.1 2.8 2.6 2.2 2.4 2.2 2.0 2.2 2.7 4.2 5.2 3.4 6.5 12.0 9.3 11.1 9.2 5.2 3.6 3.2 2.3 2.2 2.8 2.8 2.9 3.4 3.2
2.6 2.5 2.7 2.8 2.5 2.1 1.9 2.0 2.0 2.8 3.3 3.8 3.7 2.9 2.6 2.7 2.6 2.7 2.5 2.3 2.8 2.7 2.7 3.6 7.7 8.8 11.4 11.9 7.7 4.5 4.3 4.1 3.4 4.4 4.2 4.1 4.1 4.1
2.7 2.3 2.1 2.0 2.2 2.2 2.1 2.6 2.6 3.2 4.0 4.5 4.3 3.6 3.2 3.5 3.7 3.6 4.3 4.1 5.1 4.2 3.2 3.0 4.2 7.7 10.2 7.8 8.1 7.5 5.3 6.2 5.4 5.9 6.2 5.7 4.7 4.4
4.2 3.5 2.8 2.5 2.5 2.9 3.0 3.0 3.3 3.4 4.7 4.4 5.2 5.4 4.7 4.5 4.3 4.4 5.8 6.4 7.2 5.5 4.8 3.9 3.7 4.7 6.1 7.6 8.7 6.7 5.5 6.0 7.0 8.2 9.3 8.9 5.4 3.9
4.3 4.6 3.7 3.3 3.7 3.8 4.2 4.6 4.6 5.1 5.4 5.9 6.4 6.7 7.1 6.8 6.5 5.8 6.5 7.6 7.6 5.9 5.8 5.2 6.1 7.5 7.5 6.2 5.7 7.3 7.6 7.9 8.4 9.1 10.6 12.5 9.8 4.8
4.4 4.3 3.9 4.1 4.4 4.6 4.7 5.4 5.8 5.6 6.1 7.3 7.9 8.6 9.2 8.7 8.0 7.7 7.8 7.8 7.5 6.8 6.2 6.5 8.7 12.9 13.3 8.9 5.6 6.0 10.2 10.7 10.0 10.1 11.1 13.2 14.7 8.6
4.0 4.5 4.9 4.7 5.0 5.2 5.5 5.9 6.0 6.1 7.0 7.3 8.1 9.5 10.5 11.0 10.3 9.3 8.4 8.7 9.0 8.1 7.1 6.3 7.8 12.1 17.0 14.3 10.8 7.8 7.1 11.9 14.3 14.7 12.7 10.4 8.1 4.9
4.7 5.0 5.5 5.8 6.1 6.2 6.3 6.6 7.2 7.5 7.5 8.8 9.2 9.9 11.2 12.7 11.8 10.3 10.1 9.6 10.3 10.5 9.6 7.4 6.6 7.9 12.3 14.9 13.2 9.3 8.9 7.7 10.2 16.4 16.5 15.3 12.6 10.5
4.8 5.3 5.5 6.1 6.5 7.0 7.4 7.6 7.9 7.8 8.3 9.2 9.8 10.2 10.9 12.6 13.0 11.7 11.3 11.3 10.5 10.1 9.6 8.2 8.0 9.1 11.6 14.5 11.9 8.3 8.2 7.9 7.6 7.1 9.6 14.0 22.8 24.5
5.8 5.9 5.9 6.3 6.5 7.1 7.8 8.1 8.2 8.0 8.4 9.7 10.8 11.1 11.6 12.1 12.0 12.4 12.4 12.0 11.9 11.3 10.7 10.2 8.7 8.7 9.2 9.8 10.3 9.0 8.1 8.0 7.8 8.7 10.3 9.4 8.2 9.8